Theta_e
298 299 300 300 301 302 302 303 303 304 305 305 305 305 305 306 306 303 299 303 299 295 297 298 298 293 294 291 287 289 290 290 288 283 282 283 281 289 287 292 289 286 284 284 285 279 277 296 297 289 290 292 293 294
298 299 299 300 300 301 302 302 302 303 304 305 305 305 305 305 305 305 297 304 304 297 296 300 300 301 299 297 290 289 288 290 289 285 284 285 282 286 287 285 294 286 287 282 285 283 290 296 294 297 295 293 293 293
299 299 300 301 300 300 301 302 302 303 304 305 305 305 305 305 306 304 300 301 300 295 295 293 294 299 301 299 299 290 291 294 294 290 287 286 281 283 277 286 291 295 298 290 291 291 293 296 297 299 297 296 296 296
299 299 300 300 300 301 301 302 302 303 303 304 305 305 305 306 306 305 299 302 298 294 288 292 302 299 304 300 298 298 296 296 294 292 290 287 281 285 282 285 285 293 297 293 292 295 297 297 299 298 296 296 294 293
299 300 299 299 300 301 302 302 302 303 303 304 305 305 305 305 305 304 302 302 302 295 288 291 298 299 300 301 299 300 297 294 291 288 286 285 285 284 284 285 283 289 288 288 286 293 294 294 298 296 294 293 292 291
299 300 299 299 300 301 302 302 302 302 303 304 305 305 305 305 305 300 293 302 304 301 293 286 295 298 300 300 299 298 298 296 292 289 285 287 291 286 285 285 289 291 293 295 292 295 298 298 300 297 294 294 294 292
300 299 299 300 300 301 302 301 301 302 303 304 305 305 305 305 302 295 292 297 304 303 293 287 289 298 300 300 297 295 297 294 292 292 290 286 289 290 286 285 289 296 298 298 300 298 294 295 294 295 295 294 295 293
299 298 299 301 301 301 301 301 302 302 303 305 305 304 305 305 302 296 301 304 304 298 296 287 287 293 300 293 292 297 292 293 292 292 291 289 288 286 284 287 290 293 295 297 297 297 294 293 293 293 293 293 292 291
299 299 300 301 301 302 301 301 302 302 304 305 305 305 300 299 295 298 305 303 301 296 289 288 285 283 298 294 294 293 293 286 293 288 288 288 286 284 285 287 290 293 294 295 292 294 294 293 292 292 291 291 290 290
299 300 300 301 301 301 301 301 302 304 305 304 299 294 291 295 305 303 296 292 292 292 292 285 286 287 293 293 289 290 290 287 284 287 291 285 283 289 290 292 293 297 299 294 290 290 291 291 291 291 291 291 290 290
299 300 300 300 300 300 301 301 302 303 302 297 293 291 297 303 297 292 288 287 288 283 288 288 284 287 293 289 288 291 287 288 283 285 286 285 283 287 291 291 294 298 298 295 293 294 294 293 292 291 292 292 290 290
299 300 300 300 300 301 301 301 302 300 298 297 295 298 297 293 289 284 284 286 285 283 284 283 283 285 292 294 289 290 286 287 282 290 286 283 285 290 292 293 296 295 294 293 295 295 294 294 293 291 290 289 289 289
299 300 300 300 300 301 302 301 302 303 300 297 293 289 287 287 281 281 280 281 282 285 285 289 287 291 292 290 286 287 283 283 290 285 281 284 290 294 292 293 293 294 295 295 293 292 292 291 290 290 289 289 288 288
299 299 300 300 301 303 303 301 303 301 296 290 287 281 282 279 283 283 283 287 291 293 288 289 290 288 290 286 287 283 284 284 282 281 281 286 292 293 293 293 294 294 294 292 291 291 290 289 289 289 288 288 288 287
299 299 300 300 301 303 302 302 303 300 294 287 287 281 284 288 290 291 291 291 295 295 293 291 290 290 286 285 286 284 282 281 283 279 284 292 295 293 292 293 293 292 290 289 289 289 288 288 288 287 287 287 287 287
299 299 299 301 301 303 302 302 300 296 293 289 288 286 288 287 286 289 291 292 294 294 293 291 287 285 284 284 283 281 281 279 281 288 294 295 295 295 291 293 293 291 289 288 288 288 288 287 286 287 288 288 288 287
298 294 300 300 301 302 302 297 295 292 289 287 286 289 288 288 286 288 293 294 294 292 288 289 285 284 288 283 282 286 282 288 292 294 296 296 295 290 291 292 291 290 289 289 288 288 287 287 288 286 285 287 287 286
293 296 299 300 300 299 297 296 292 289 286 288 285 288 290 291 292 294 294 294 293 291 291 288 291 286 285 283 285 289 291 294 296 295 292 292 292 291 291 289 290 290 289 290 290 289 288 287 285 284 284 286 286 285
296 297 299 300 299 296 290 292 292 286 287 288 286 286 289 291 296 297 294 295 296 296 293 290 287 286 286 289 290 292 293 295 293 291 291 292 292 291 291 290 290 289 289 288 288 286 286 286 286 286 285 285 285 284
298 299 300 301 300 293 290 290 294 288 285 287 287 287 291 290 296 295 294 294 293 292 289 287 288 291 289 292 294 296 296 293 291 289 289 290 291 291 290 289 288 288 288 288 287 287 286 285 284 284 284 285 284 283
298 299 301 300 296 294 292 291 290 289 285 285 287 286 286 291 291 292 292 295 291 289 288 291 293 296 299 299 300 299 294 294 292 291 288 287 289 290 289 289 289 288 287 287 286 285 286 285 284 284 284 284 283 282
296 301 296 297 293 293 290 292 288 290 286 286 286 288 285 285 289 293 294 291 290 289 293 294 295 297 297 298 298 297 295 294 293 291 291 291 289 288 288 288 288 286 286 286 286 285 284 284 285 285 284 283 283 282
298 298 295 294 289 288 285 291 289 290 286 288 287 285 289 290 293 295 291 292 292 296 296 296 299 300 299 299 299 293 294 293 291 291 291 290 290 290 289 289 288 287 286 286 287 286 286 285 285 285 285 284 282 280
299 293 289 288 288 284 289 288 290 286 286 284 284 286 289 289 292 291 288 289 292 295 294 294 298 297 292 294 294 293 292 292 291 291 291 290 288 288 289 289 289 288 288 288 288 287 286 285 285 284 283 281 279 279
288 285 287 284 289 287 286 285 286 284 283 284 285 287 289 292 286 286 286 288 290 291 292 294 297 295 293 290 289 290 292 293 291 290 290 290 289 289 288 289 289 289 291 288 287 286 284 284 283 282 280 279 278 278
283 286 283 286 284 284 284 283 286 286 285 286 285 289 291 287 286 284 287 288 289 291 291 291 292 293 293 291 290 290 291 293 293 290 289 291 291 290 288 288 287 287 289 289 287 284 282 282 281 281 280 280 280 278
282 283 285 288 288 287 286 288 291 289 287 287 287 288 287 285 284 286 288 290 289 292 293 293 293 294 294 289 288 289 290 292 292 291 290 290 289 290 291 289 287 286 288 287 286 284 282 280 280 279 278 278 277 277
287 287 285 286 285 286 286 287 287 287 287 289 288 286 284 283 283 285 288 291 291 292 293 294 296 298 291 289 288 289 289 289 289 289 288 287 287 287 287 287 286 285 286 285 284 282 281 280 279 278 277 276 276 277
284 288 290 288 289 288 288 287 287 288 289 288 286 285 284 286 285 287 289 290 292 292 294 297 294 293 292 292 291 290 290 290 289 286 284 282 282 283 285 284 284 283 282 281 280 280 280 279 279 278 277 276 276 276
285 288 286 288 287 287 286 285 287 289 289 289 287 286 283 285 288 291 290 291 291 291 293 294 294 293 291 290 289 288 289 290 290 287 284 283 283 284 284 283 282 282 281 280 278 278 278 278 277 277 276 275 275 274
286 287 285 284 285 287 289 289 290 290 290 289 289 286 285 286 288 290 290 291 292 292 292 290 290 291 290 289 288 287 286 287 289 289 288 286 284 283 283 283 281 280 279 278 277 276 275 275 275 274 274 274 274 273
286 286 285 284 283 285 289 287 286 282 285 287 285 286 285 285 283 281 288 290 292 288 286 288 289 286 287 287 286 285 285 286 286 286 286 284 283 283 282 281 280 279 278 277 276 276 275 274 274 273 273 273 273 272
286 287 287 285 284 284 285 286 286 286 285 285 285 285 285 285 281 281 290 292 292 292 287 285 285 285 286 286 283 282 283 283 283 283 283 282 282 281 280 279 279 278 277 275 275 274 273 272 271 269 268 266 266 266
Wind_Speed
22 22 21 22 21 21 20 20 21 19 18 17 18 18 17 16 13 6 4 2 4 3 3 5 5 2 1 1 3 2 2 3 3 3 3 2 2 1 1 4 6 5 5 4 3 2 7 1 3 2 4 2 6 5
21 21 20 20 21 21 21 19 21 21 21 17 18 18 18 16 15 7 3 2 2 5 3 2 6 8 4 5 4 2 2 1 2 4 1 2 2 2 1 2 3 3 6 6 7 6 4 3 3 1 3 5 3 6
23 23 21 20 18 20 20 19 20 20 21 21 19 18 18 17 15 6 3 2 1 3 3 1 6 2 1 7 5 4 2 2 2 3 3 2 3 2 2 2 1 3 4 1 1 3 3 3 2 2 4 7 8 10
22 24 23 22 21 20 20 18 19 20 20 21 22 17 16 16 15 6 2 1 2 3 3 3 4 4 7 3 5 3 5 4 4 2 2 2 2 2 2 2 1 1 4 4 2 4 4 3 4 5 9 11 12 9
23 24 21 22 22 21 19 17 18 19 19 20 22 16 14 15 12 5 4 4 4 2 2 4 7 2 4 3 6 6 6 5 2 3 2 1 2 2 1 1 3 3 6 5 5 7 5 5 6 9 10 9 8 9
24 21 22 22 20 20 19 17 18 20 21 23 19 13 13 14 10 2 3 1 4 3 2 2 3 5 6 8 11 9 5 3 3 3 1 1 1 3 0 2 6 5 3 5 5 4 4 2 8 6 10 9 7 7
21 19 20 21 20 18 17 18 19 20 21 23 16 12 13 11 4 2 2 3 2 1 1 2 1 2 2 3 3 3 3 3 3 2 1 1 1 2 2 3 5 2 2 1 2 6 3 4 6 8 12 9 10 6
19 19 21 21 20 18 18 19 20 20 21 22 16 14 13 8 4 2 3 5 3 2 2 1 1 1 4 2 2 2 3 2 1 2 0 1 1 2 5 8 7 5 7 2 4 2 6 10 12 11 10 9 8 6
19 21 21 20 18 17 17 18 21 21 21 20 16 13 2 1 1 2 6 5 3 2 0 0 1 1 2 2 2 2 1 1 0 2 2 3 3 6 7 7 5 5 4 6 6 10 10 13 13 11 9 7 6 5
20 21 20 19 17 16 17 18 20 20 22 13 4 4 3 3 14 5 3 3 3 2 2 1 1 1 2 2 2 1 2 1 0 2 2 2 5 8 6 6 3 2 3 7 12 8 11 10 10 8 6 5 5 5
21 22 19 17 16 17 18 17 19 21 8 3 3 2 3 7 2 2 2 1 1 2 0 1 1 1 4 2 2 1 1 1 2 2 2 2 4 4 3 6 4 4 6 4 6 8 9 14 12 10 8 6 6 5
21 20 17 17 17 17 18 17 17 7 1 2 2 3 3 2 1 3 2 0 1 1 1 2 2 3 2 2 2 1 1 0 2 4 2 3 4 5 4 5 5 5 7 8 11 12 11 11 9 8 7 6 4 5
20 19 18 19 19 19 18 15 14 11 3 2 2 2 2 1 2 2 3 1 2 1 3 2 2 0 2 3 1 2 2 3 2 2 3 5 4 2 5 8 10 9 10 12 12 10 11 9 9 8 7 5 6 6
18 18 19 19 19 20 10 8 9 3 2 2 3 4 0 3 3 2 1 2 2 1 3 3 2 1 1 1 1 2 3 1 3 3 5 3 2 5 5 7 11 10 11 12 11 11 10 10 8 7 6 6 6 6
17 19 20 10 19 20 3 4 2 1 1 1 1 3 3 3 4 3 4 3 1 2 3 2 2 1 1 1 1 1 1 3 3 4 3 3 3 8 7 10 11 10 9 9 8 8 9 8 7 6 6 6 6 6
17 15 3 16 20 11 1 1 1 1 0 1 3 3 3 5 3 2 3 2 1 2 3 1 2 2 2 2 2 5 2 5 4 1 2 4 8 7 4 7 8 8 9 8 7 7 7 7 7 6 6 5 6 6
13 2 9 16 19 7 4 1 1 1 2 2 3 4 4 5 4 3 2 2 2 1 1 1 2 2 3 3 3 3 4 2 4 5 5 8 8 5 6 8 8 9 8 8 6 6 6 6 6 6 7 4 6 6
3 4 14 16 13 4 2 2 2 1 3 3 3 4 2 3 3 3 1 2 2 1 1 1 2 3 3 3 2 2 1 2 2 4 3 5 6 6 8 9 7 8 7 6 6 5 6 6 6 4 6 6 6 5
7 8 15 15 8 3 2 1 0 2 3 3 4 3 3 3 3 2 2 2 2 1 1 1 2 2 2 2 4 5 4 2 2 2 3 5 6 9 8 7 8 7 8 6 6 5 4 5 5 4 4 4 5 3
16 15 14 9 4 1 2 1 1 2 3 3 2 3 3 3 1 2 2 1 1 0 1 1 2 1 3 5 5 3 2 3 5 6 4 4 4 7 7 7 5 6 6 6 5 5 5 4 3 4 4 5 6 4
6 3 0 3 1 1 2 2 2 3 3 3 3 2 3 1 0 1 2 2 1 1 1 2 3 5 7 4 1 3 3 3 3 4 4 3 3 6 5 4 5 4 4 4 4 3 4 4 4 3 4 5 5 5
3 5 0 1 1 2 2 3 3 2 1 4 3 1 2 1 2 2 3 1 1 2 2 2 4 2 5 2 2 1 4 6 6 6 9 8 4 3 4 4 5 3 4 4 4 5 3 3 4 4 6 6 6 5
7 2 1 1 2 2 5 1 3 3 2 2 3 2 2 0 1 1 1 1 0 2 3 3 5 5 4 1 3 5 4 7 5 5 5 4 4 4 4 4 5 7 5 3 3 5 5 5 6 6 6 6 6 6
3 2 2 2 3 4 1 3 2 2 3 2 2 3 1 1 0 1 1 1 2 3 5 7 4 4 3 4 3 2 3 3 5 4 3 6 5 3 3 4 4 3 4 6 5 5 4 4 6 5 6 7 6 6
2 3 2 4 3 3 3 2 2 0 3 2 3 1 1 1 1 0 1 1 2 3 5 5 4 3 2 1 1 2 2 5 6 4 2 4 8 6 6 5 5 3 4 8 5 6 5 5 5 6 6 6 7 7
4 4 5 3 2 3 3 2 0 2 2 2 1 2 1 0 1 0 1 2 2 2 3 4 4 5 5 3 2 3 3 3 5 4 2 2 5 8 7 7 5 3 3 5 8 8 7 6 7 9 8 8 7 6
3 4 4 4 2 2 3 2 1 1 2 2 3 2 1 2 1 1 1 1 1 2 3 3 2 2 3 2 3 3 4 4 4 6 5 5 5 4 4 6 7 3 5 7 7 8 9 8 8 8 8 7 6 5
3 2 4 1 2 2 2 1 1 1 2 2 3 2 2 2 1 1 2 2 3 5 4 3 3 2 2 3 3 4 7 8 9 11 10 10 8 7 9 8 7 12 7 6 7 7 7 8 8 8 8 7 6 5
3 3 3 3 3 1 1 3 2 2 1 1 2 1 0 1 1 1 2 3 5 4 3 4 2 3 6 5 4 5 3 6 8 8 11 7 5 4 5 7 7 7 7 9 12 8 10 8 8 8 9 7 6 5
5 4 3 3 3 3 1 1 1 1 1 1 2 1 1 2 2 2 3 3 3 3 2 3 4 4 3 3 4 6 5 3 5 8 8 7 6 5 5 7 8 7 7 8 9 10 11 10 9 7 7 6 5 4
2 2 2 2 2 1 1 1 1 1 2 3 2 2 2 1 2 2 2 2 3 1 3 4 4 2 5 4 3 4 3 4 5 8 10 9 8 7 6 7 6 6 7 8 7 7 7 7 6 7 7 7 6 5
2 3 4 4 2 1 1 1 2 2 2 3 2 2 1 1 2 3 2 2 1 2 2 2 5 3 3 4 4 4 5 6 7 9 13 10 8 7 7 7 7 7 7 8 7 7 8 8 7 6 6 7 6 6
1 2 2 2 1 2 3 3 2 2 2 2 3 4 3 3 4 3 1 1 1 2 4 4 5 5 6 7 7 6 6 6 9 11 13 13 13 11 8 6 7 8 10 8 7 7 8 9 7 7 6 6 5 5
Wind_Direction
331 331 333 327 326 327 327 329 329 325 314 315 319 318 318 316 315 338 269 226 255 253 264 297 311 288 345 47 156 252 30 342 38 70 114 210 144 351 287 118 159 150 159 174 140 163 268 8 339 190 209 115 131 107
326 329 327 325 323 323 325 325 327 323 331 317 316 319 313 313 323 324 268 283 316 273 291 255 259 266 229 198 148 359 179 183 172 87 42 95 59 341 39 179 60 166 174 182 171 210 235 294 206 120 129 118 101 93
327 324 323 319 319 318 322 320 321 321 321 325 320 312 310 312 317 293 263 265 296 283 273 358 263 311 203 203 172 136 284 180 88 166 143 111 88 148 121 226 283 208 165 112 58 360 247 205 347 142 127 113 116 109
323 318 324 326 323 318 318 320 319 320 319 320 320 308 316 317 312 293 247 277 167 252 281 290 340 333 303 181 146 146 138 76 102 66 85 103 126 170 203 258 314 21 134 124 277 300 323 256 201 116 94 102 101 87
317 318 322 321 318 320 320 323 329 322 317 316 313 313 328 324 317 296 236 215 215 221 298 306 300 277 343 154 120 97 103 94 78 61 67 191 121 111 282 105 243 200 186 163 219 212 173 233 160 132 124 121 117 120
315 322 321 317 321 319 320 326 327 325 327 321 320 318 325 319 333 296 308 65 185 175 271 297 339 334 32 86 78 70 71 94 73 107 193 295 201 103 172 259 254 220 206 185 219 180 190 103 129 126 126 130 123 113
320 321 317 319 316 318 326 325 325 324 324 322 318 320 313 310 301 195 235 239 312 130 229 279 276 120 76 44 53 54 33 68 83 74 60 76 345 130 234 237 257 102 54 89 181 133 100 141 153 128 120 114 116 111
324 321 316 317 318 324 327 327 325 328 323 322 319 313 314 314 328 303 266 248 229 118 244 277 2 262 164 82 83 50 38 34 47 116 348 194 350 91 251 239 278 299 328 352 177 86 121 111 105 100 107 116 126 126
323 321 317 313 311 318 328 330 330 327 319 317 317 314 350 27 287 2 66 62 61 58 118 11 355 63 96 67 83 83 116 122 86 198 237 113 203 225 228 229 240 230 197 158 92 102 111 119 119 117 115 117 121 134
324 318 321 319 319 326 330 329 329 327 318 324 354 14 4 336 326 331 3 19 32 358 25 37 342 46 5 92 51 54 349 87 276 227 122 210 254 248 224 217 234 239 240 143 103 99 109 113 123 126 126 125 130 137
319 316 313 314 327 333 329 330 330 328 325 9 13 336 269 308 9 11 19 22 357 23 92 23 116 12 3 115 101 347 162 141 266 150 236 230 259 260 281 207 197 215 168 139 115 128 133 140 144 136 124 110 111 125
315 318 317 325 329 329 322 322 329 328 323 307 294 306 316 343 357 359 348 104 235 276 185 160 234 198 328 82 83 158 236 236 272 139 235 253 252 262 251 172 159 111 110 100 127 117 118 119 117 108 106 111 109 107
315 317 322 323 323 319 311 307 314 320 314 322 8 350 3 330 341 306 348 335 306 252 180 158 80 48 39 43 54 117 261 233 114 231 243 234 276 51 106 111 100 102 96 103 101 100 104 102 98 106 108 111 107 89
314 320 321 320 318 319 310 310 312 291 -0 11 342 317 231 283 254 264 248 335 277 315 132 113 115 77 82 81 116 218 239 38 244 230 235 258 204 112 105 110 109 111 115 111 112 113 113 113 116 112 113 118 100 82
318 321 322 328 333 334 287 319 290 9 357 335 291 281 250 270 255 260 287 261 248 99 109 100 102 105 123 146 229 301 238 251 233 239 232 169 127 108 111 109 111 112 115 109 114 112 110 113 121 115 111 108 97 92
322 322 356 342 337 339 86 25 9 358 298 260 239 269 259 273 309 260 271 91 49 101 101 140 136 173 165 188 183 211 238 233 255 245 79 111 103 74 99 110 115 119 118 114 107 112 115 119 124 125 118 109 93 89
323 252 334 342 342 3 17 34 329 292 292 275 260 237 259 276 263 267 278 152 135 117 91 136 203 202 128 198 219 202 223 276 285 236 145 123 150 154 118 109 114 116 115 115 111 118 113 119 114 103 101 112 102 83
250 295 325 327 335 311 316 359 318 333 270 256 278 291 247 241 279 294 99 144 113 158 148 232 291 227 239 229 203 177 14 342 19 53 144 146 125 119 119 119 118 119 116 120 123 119 121 123 108 106 114 119 101 83
282 298 300 306 306 303 305 261 232 286 265 278 269 261 248 261 266 285 124 106 88 127 315 285 252 251 272 314 311 300 152 187 137 74 66 73 111 119 111 105 107 112 119 115 114 116 124 121 118 120 124 122 114 100
296 288 282 282 243 223 268 257 217 258 278 273 280 272 270 266 304 109 107 139 136 208 252 250 275 297 218 260 276 202 89 117 114 100 76 51 64 103 105 115 115 117 103 98 87 97 110 86 82 101 109 123 122 103
310 259 35 155 227 222 282 268 235 227 262 261 264 305 286 312 226 161 191 149 218 200 274 258 252 283 285 274 195 48 134 137 111 123 137 102 43 107 98 93 109 103 116 124 122 95 89 119 131 110 105 109 104 99
270 314 51 271 265 223 249 227 243 283 271 262 312 214 283 284 240 192 125 198 255 226 231 264 300 319 334 22 83 82 132 98 86 92 84 109 108 105 123 137 121 107 101 121 130 124 113 123 114 105 109 109 98 89
295 236 229 219 273 246 262 146 246 207 251 274 336 281 248 240 343 146 230 137 106 346 300 281 294 313 278 323 80 55 94 127 121 110 114 114 113 115 114 112 124 128 119 82 106 122 119 104 98 107 114 107 99 86
279 243 236 230 201 269 283 235 215 271 290 296 262 261 174 46 280 353 36 29 349 332 350 330 324 330 35 81 112 96 99 100 100 85 111 123 111 72 91 109 101 84 104 121 114 105 95 95 99 97 103 102 89 88
219 235 179 249 226 233 239 247 217 266 261 250 273 217 187 102 298 226 34 19 360 359 340 326 16 349 63 78 67 107 117 136 132 121 56 98 113 97 77 73 72 71 133 124 114 107 95 92 94 101 99 100 105 98
237 201 188 246 231 204 237 262 352 295 275 276 313 346 338 194 271 70 60 353 339 336 351 358 345 2 6 356 139 127 141 126 118 101 70 146 139 132 136 136 130 63 51 103 118 114 105 99 103 107 104 101 104 106
257 248 225 229 249 278 281 266 168 247 286 342 354 326 309 249 201 87 347 356 315 311 300 311 315 314 323 351 40 39 53 70 93 108 86 62 53 48 125 147 129 112 104 106 116 127 125 118 112 110 106 90 79 81
251 255 228 221 224 225 246 141 347 348 10 337 287 321 326 320 325 321 287 323 303 296 289 273 261 281 106 80 72 99 89 92 95 98 85 56 47 54 78 85 89 91 84 81 101 104 111 116 117 115 109 101 87 65
244 243 208 219 202 255 208 191 195 176 177 246 295 307 4 228 248 279 296 306 297 284 265 155 104 89 77 62 45 59 72 121 116 100 104 113 102 46 58 85 84 81 83 83 66 82 99 104 108 108 108 103 94 81
250 180 220 173 173 195 231 130 101 111 208 242 140 107 332 261 236 236 277 296 324 326 345 95 126 119 116 124 93 60 29 29 119 132 134 134 138 129 107 104 95 97 102 102 103 99 90 96 99 99 99 93 84 78
211 141 96 81 148 112 80 87 67 267 247 210 223 208 231 263 278 230 237 263 302 62 100 96 82 79 107 109 114 115 87 16 84 98 104 109 110 105 105 101 104 106 107 110 110 110 111 104 104 107 106 103 92 78
149 160 136 182 229 233 149 221 231 228 227 191 216 167 189 212 259 273 232 195 178 111 96 114 125 102 83 93 77 61 84 114 116 119 119 116 111 112 110 107 106 107 106 106 108 111 115 117 119 113 106 97 83 71
105 86 91 123 146 197 193 211 233 260 216 236 220 197 198 192 240 244 267 205 230 143 140 112 90 79 75 89 97 82 71 79 85 96 101 106 112 114 108 103 104 105 108 107 104 113 112 107 100 98 92 89 78 62